Location: *
(52.2601°N, 1.6136°W)
Time: 04:06:56
(UTC+00:00)

Daily predictions for brighter satellites

Satellite Brightness Start Highest point End
(mag) Time Altitude Azimuth Time Altitude Azimuth Time Altitude Azimuth
USA 267 4.3 00:02:01 10° ENE 00:05:37 36° ENE 00:05:37 36° ENE
Resurs 1-4 Rocket 4.5 00:27:14 10° NE 00:29:07 14° ENE 00:29:07 14° ENE
Cosmos 2263 Rocket 4.0 00:31:46 24° NW 00:32:01 24° NW 00:36:38 10° NNE
Cosmos 1833 Rocket 4.4 00:37:29 10° NNW 00:39:56 27° NNW 00:39:56 27° NNW
Cosmos 2278 Rocket 3.6 00:51:01 33° NE 00:51:01 33° NE 00:54:14 10° NE
CZ-4C R/B 4.3 00:46:11 10° NW 00:48:49 23° WNW 00:48:49 23° WNW
SL-16 R/B 3.2 00:53:22 48° NE 00:53:22 48° NE 00:59:01 10° N
ATLAS CENTAUR R/B 4.0 01:04:54 21° NNW 01:04:54 21° NNW 01:08:26 10° NE
CZ-2D R/B 3.8 01:05:11 10° NNE 01:08:35 27° ENE 01:08:35 27° ENE
SJ 16-02 4.0 01:06:11 10° NNW 01:07:09 16° NNW 01:07:09 16° NNW
ATLAS 5 CENTAUR R/B 3.6 01:18:57 27° NE 01:18:57 27° NE 01:21:20 10° NE
H-2A R/B 4.4 01:36:50 19° N 01:36:50 19° N 01:38:08 10° N
Cosmos 1844 Rocket 4.2 01:42:10 27° NW 01:42:10 27° NW 01:46:56 10° NNE
Cosmos 2082 Rocket 4.2 01:42:21 10° NW 01:43:49 18° NW 01:43:49 18° NW
USA 267 3.5 01:45:04 10° ENE 01:51:30 62° N 01:52:56 51° WNW
ADEOS II 3.7 01:51:14 10° NE 01:55:39 26° E 01:56:26 25° ESE
Cosmos 2297 4.1 01:58:54 59° ENE 01:58:54 59° ENE 02:03:48 10° NE
CENTAUR R/B 4.2 01:59:00 20° SE 02:00:19 21° ESE 02:05:11 10° ENE
IRS-1D 4.2 02:01:01 10° NNE 02:06:05 51° E 02:06:05 51° E
Tsikada Rocket 4.2 02:08:19 60° NW 02:08:19 60° NW 02:13:48 10° N
Cosmos 2369 Rocket 3.7 02:07:32 25° ESE 02:08:29 26° ESE 02:13:08 10° NE
Lacrosse 5 2.6 02:08:52 51° NNE 02:08:52 51° NNE 02:13:31 10° E
Resurs 1-4 Rocket 2.3 02:05:38 10° NNE 02:10:11 66° NNE 02:10:11 66° NNE
Cosmos 2279 Rocket 3.8 02:10:54 10° N 02:17:11 88° E 02:17:25 84° SSE
Cosmos 540 Rocket 3.9 02:19:11 56° E 02:19:11 56° E 02:23:53 10° NNE
Cosmos 1570 Rocket 4.2 02:21:21 65° N 02:21:21 65° N 02:26:01 10° NNE
USA 238 DEB 3.7 02:21:37 59° SSE 02:22:21 63° SE 02:29:14 10° NE
USA 238 3.8 02:21:42 59° SSE 02:22:27 63° SE 02:29:20 10° NE
Cosmos 1634 Rocket 4.3 02:19:22 10° NNW 02:24:39 51° WNW 02:24:39 51° WNW
Cosmos 2084 4.4 02:27:29 48° NE 02:27:29 48° NE 02:30:43 10° NE
Cosmos 1763 Rocket 3.8 02:27:12 63° NNW 02:27:12 63° NNW 02:31:57 10° NNE
Meteor 1-20 Rocket 4.3 02:21:17 10° N 02:26:46 69° ENE 02:27:34 60° ESE
Gbstr 26 Del rocket 4.4 02:30:24 49° W 02:33:00 88° S 02:41:03 10° E
Cosmos 2278 Rocket 3.1 02:32:51 35° NW 02:33:04 35° NW 02:38:17 10° NNE
AQUA 4.2 02:28:47 10° NNE 02:32:45 60° N 02:32:45 60° N
ARIANE 5 R/B 3.0 02:31:12 10° NNE 02:36:14 52° E 02:36:58 48° SE
SL-16 R/B 3.4 02:38:29 33° WNW 02:38:29 33° WNW 02:42:37 10° NNW
SL-08 R/B 4.2 02:40:05 40° NW 02:40:05 40° NW 02:43:11 10° NNW
SME Rocket 3.7 02:33:00 10° NNE 02:40:32 86° WNW 02:41:10 72° SSW
CZ-4B R/B 3.5 02:43:42 26° N 02:43:42 26° N 02:45:23 10° N
IRIDIUM 106 4.5 02:43:28 58° SE 02:44:18 69° E 02:49:31 10° N
ATLAS CENTAUR R/B 4.1 02:41:55 10° NW 02:45:22 19° N 02:48:39 10° NE
CZ-2D R/B 2.4 02:45:00 10° N 02:49:53 50° WNW 02:49:53 50° WNW
Cosmos 1943 Rocket 2.6 02:49:36 46° SSE 02:50:46 55° ESE 02:56:13 10° NE
Cosmos 1869 Rocket 3.7 02:46:27 10° N 02:50:29 70° N 02:50:29 70° N
NPP 3.9 02:47:49 10° N 02:53:02 51° WNW 02:53:02 51° WNW
Cosmos 1125 Rocket 3.4 02:49:26 10° NNW 02:54:36 72° W 02:54:36 72° W
Nadezhda 4 Rocket 4.2 02:52:13 34° SSE 02:54:54 66° E 03:00:58 10° NNE
CRYOSAT 2 4.2 02:55:46 79° WNW 02:55:46 79° WNW 03:00:34 10° N
Cosmos 2344 3.7 02:54:20 41° SSW 02:57:09 69° SE 03:05:33 10° NE
Cosmos 1814 Rocket 4.0 02:57:19 63° WNW 02:57:27 63° WNW 03:02:38 10° NNE
IRS-1C 4.0 02:53:06 10° NNE 02:58:28 81° WNW 02:59:11 67° SW
deb Chang Zheng 4 3.6 02:56:16 10° NNE 03:00:27 76° NNW 03:00:27 76° NNW
Cosmos 1782 3.3 03:01:20 52° ESE 03:01:33 53° E 03:05:25 10° NNE
ATLAS 5 CENTAUR R/B 3.0 03:00:29 29° NW 03:01:34 32° NNW 03:06:17 10° NE
NOSS 3-2 (A) 3.4 03:04:27 53° SW 03:06:01 86° SE 03:12:51 10° NE
CBERS-1 4.3 03:03:24 10° N 03:08:18 48° WNW 03:08:30 48° WNW
ATLAS 3B R/B 3.0 03:06:40 34° S 03:09:23 55° SE 03:15:48 10° NE
NOSS 3-2 (C) 3.6 03:08:07 44° SSW 03:10:03 68° SE 03:16:46 10° NE
Unknown 3.8 03:13:26 55° E 03:13:26 55° E 03:16:18 10° ENE
BREEZE-M DEB (TANK) 4.3 03:12:18 45° SW 03:13:23 51° SSW 03:27:58 10° SE
Cosmos 1400 Rocket 4.2 03:11:56 23° SE 03:13:36 34° E 03:17:09 10° NNE
Unknown 4.3 03:16:03 40° SE 03:16:03 40° SE 03:19:44 10° E
Meteor 1-25 Rocket 4.3 03:12:01 10° NNW 03:17:34 52° W 03:18:12 49° WSW
Cosmos 841 Rocket 3.9 03:17:57 43° WNW 03:18:34 45° WNW 03:23:36 10° NNE
CZ-2D R/B 3.3 03:14:37 10° NNE 03:18:42 81° ESE 03:19:06 70° S
IDEFIX/ARIANE 42P 4.1 03:16:05 10° NNE 03:20:52 33° E 03:25:37 10° SSE
Unknown 4.4 03:24:10 39° SSE 03:24:29 40° SSE 03:28:22 10° E
Unknown 4.3 03:25:26 40° SSE 03:25:43 41° SSE 03:29:35 10° E
Unknown 4.4 03:25:36 37° SSE 03:25:58 38° SSE 03:29:50 10° E
Cosmos 2228 Rocket 3.8 03:26:30 38° WNW 03:26:30 38° WNW 03:30:29 10° N
Cosmos 2084 Rocket 3.4 03:23:37 18° NW 03:26:51 86° NE 03:31:14 10° SE
Unknown 4.4 03:27:10 38° SSE 03:27:36 39° SSE 03:31:29 10° E
Iridium 4 Rocket 3.7 03:26:11 15° SSE 03:29:42 55° E 03:33:50 10° NNE
Unknown 3.1 03:30:13 80° NNE 03:30:13 80° NNE 03:33:37 10° E
Unknown 4.3 03:30:23 38° S 03:30:55 40° SSE 03:34:50 10° E
FALCON 9 DEB 3.1 03:31:48 82° NNW 03:31:50 83° N 03:35:23 10° E
Unknown 4.3 03:31:59 39° S 03:32:35 41° SSE 03:36:30 10° E
Cosmos 2026 Rocket 4.5 03:27:41 10° S 03:33:51 61° E 03:40:09 10° NNE
USA 267 3.6 03:27:44 10° E 03:34:12 65° NNE 03:40:15 12° WNW
Unknown 4.3 03:33:35 39° S 03:34:15 42° SSE 03:38:10 10° E
CZ-2C R/B 2.7 03:30:25 10° NNE 03:34:27 89° WNW 03:35:22 52° SSW
Meteor 1-14 Rocket 4.3 03:29:09 10° NNW 03:34:29 50° W 03:36:22 35° SW
Cosmos 1536 4.4 03:30:57 10° N 03:34:40 36° ENE 03:38:21 10° SE
Timation 2 Rocket 3.8 03:28:39 10° NNW 03:34:47 87° WSW 03:40:45 10° SSE
Cosmos 1346 Rocket 4.1 03:31:22 10° N 03:35:18 42° ENE 03:39:12 10° SE
ADEOS II 2.2 03:30:32 10° N 03:35:41 57° WNW 03:37:22 39° SW
Unknown 4.3 03:35:10 39° S 03:35:54 43° SSE 03:39:51 10° ENE
Spot 4 Rocket 4.0 03:31:10 10° N 03:36:17 65° WNW 03:38:09 38° SW
Unknown 4.2 03:38:23 39° S 03:39:13 45° SSE 03:43:11 10° ENE
Meteor 1-26 Rocket 4.3 03:39:12 37° SW 03:41:05 55° WNW 03:46:35 10° N
Unknown 4.1 03:40:15 41° SSW 03:41:08 49° SSE 03:45:08 10° ENE
Cosmos 1606 3.9 03:42:12 28° NW 03:42:12 28° NW 03:45:07 10° N
Cosmos 2227 Rocket 4.2 03:37:19 10° NNW 03:42:16 29° NE 03:47:12 10° E
Unknown 4.1 03:41:48 41° SSW 03:42:44 50° SSE 03:46:46 10° ENE
Unknown 4.1 03:41:58 39° SSW 03:42:55 48° SSE 03:46:55 10° ENE
Unknown 4.1 03:44:45 38° SSW 03:45:49 48° SSE 03:49:50 10° ENE
Cosmos 1656 Rocket 4.2 03:41:58 18° S 03:46:10 59° ESE 03:51:44 10° NE
Unknown 4.1 03:47:57 37° SSW 03:49:09 50° SSE 03:53:10 10° ENE
CENTAUR R/B 2.6 03:46:12 28° SW 03:49:49 82° SE 03:57:08 10° NE
Resurs 1-4 Rocket 3.6 03:46:24 10° N 03:50:11 20° NW 03:51:16 19° WNW
Unknown 4.0 03:49:33 37° SSW 03:50:47 51° SSE 03:54:49 10° ENE
Lacrosse 5 1.7 03:48:05 18° WNW 03:51:50 80° SSW 03:56:53 10° SE
Cosmos 2369 Rocket 2.2 03:49:21 31° SW 03:52:05 67° NW 03:57:46 10° NNE
Unknown 4.0 03:51:09 36° SSW 03:52:27 52° SSE 03:56:30 10° ENE
Cosmos 2297 Rocket 3.9 03:47:58 10° NNW 03:53:07 34° NE 03:58:14 10° ESE
Cosmos 2195 Rocket 4.5 03:47:19 11° S 03:53:30 89° W 03:59:47 10° N
Unknown 4.0 03:52:46 36° SSW 03:54:07 53° SSE 03:58:10 10° ENE
Cosmos 1908 Rocket 4.3 03:50:45 10° N 03:55:01 53° ENE 03:59:16 10° SSE
Cosmos 220 Rocket 3.9 03:54:50 35° SW 03:56:34 71° WNW 04:00:52 10° NNE
Cosmos 1833 4.4 03:51:57 10° NW 03:57:18 45° WSW 04:02:36 10° S
S3M 4.5 03:51:26 10° N 03:57:34 63° ENE 04:03:45 10° SSE
Cosmos 44 3.5 03:55:43 24° SSW 03:58:40 69° SE 04:03:23 10° NE
Cosmos 1500 3.2 03:54:57 10° N 03:58:43 81° ENE 04:02:29 10° SSE
Cosmos 1707 Rocket 3.7 03:57:02 32° SW 03:58:48 54° WNW 04:03:08 10° N
PSLV R/B 3.8 03:55:43 10° S 03:59:51 74° WSW 04:03:59 10° NNW
Unknown 3.9 03:59:07 33° SW 04:00:44 57° SSE 04:04:48 10° ENE
PSLV R/B 3.9 03:57:53 10° NNE 04:02:17 69° ESE 04:06:37 10° S
Unknown 3.3 04:00:59 38° WSW 04:02:20 84° SSE 04:06:11 10° ENE
Unknown 3.9 04:00:44 32° SW 04:02:24 58° SSE 04:06:29 10° ENE
Cosmos 1733 Rocket 3.1 03:59:34 10° NNW 04:03:58 57° W 04:08:19 10° S
Unknown 3.9 04:02:19 31° SW 04:04:03 59° SSE 04:08:08 10° ENE
Unknown 3.8 04:03:54 31° SW 04:05:42 60° SSE 04:09:47 10° ENE
Unknown 3.4 04:04:23 35° WSW 04:05:56 81° SSE 04:09:51 10° ENE
Unknown 3.8 04:05:32 30° SW 04:07:23 61° SSE 04:11:29 10° ENE
Meteor 2-6 Rocket 4.3 04:02:23 13° SSW 04:07:47 76° WNW 04:13:47 10° N
SeaSat 1 3.3 04:03:36 10° NE 04:08:25 49° ESE 04:13:11 10° S
Meteor 1-28 Rocket 4.0 04:10:35 29° W 04:10:35 29° W 04:13:54 10° NNW
Unknown 3.8 04:08:44 29° SW 04:10:43 63° SSE 04:14:49 10° ENE
Starlink (trailer) 3.8 04:10:16 28° SW 04:12:19 64° SSE 04:16:26 10° ENE
USA 238 DEB 4.2 04:09:04 21° W 04:13:36 50° NNW 04:20:28 10° NE
USA 238 4.2 04:09:09 21° W 04:13:42 50° NNW 04:20:34 10° NE
Unknown 3.8 04:11:55 27° SW 04:14:02 65° SSE 04:18:09 10° ENE
ARIANE 5 R/B 3.5 04:10:44 10° N 04:15:07 29° WNW 04:17:18 21° W
Unknown 3.7 04:13:30 26° SW 04:15:40 66° SSE 04:19:48 10° ENE
SL-4 R/B 3.2 04:17:01 19° SSW 04:17:01 19° SSW 04:19:13 10° SSE
Unknown 2.9 04:16:12 28° WNW 04:17:47 90° NW 04:21:01 10° ESE
Meteor 1-27 Rocket 3.9 04:12:23 10° S 04:18:14 79° E 04:24:01 10° NNE
Unknown 3.2 04:16:27 26° W 04:18:19 77° N 04:21:51 10° E
Cosmos 2278 Rocket 4.4 04:15:56 10° NW 04:18:57 14° NNW 04:21:59 10° NNE
ADEOS 3.5 04:13:56 10° NNE 04:19:12 83° WNW 04:24:25 10° SSW
Cosmos 1092 Rocket 4.2 04:15:54 14° SW 04:20:59 51° WNW 04:27:01 10° N
Unknown 3.7 04:19:55 24° WSW 04:22:19 70° SSE 04:26:28 10° ENE
Unknown 3.7 04:21:32 23° WSW 04:24:01 71° SSE 04:28:09 10° ENE
Unknown 3.7 04:22:00 23° WSW 04:24:30 72° SSE 04:28:38 10° ENE
Falcon 9 debris 3.2 04:22:50 22° W 04:24:56 78° N 04:28:26 10° E
ATLAS CENTAUR R/B 3.0 04:21:11 10° NW 04:25:33 37° NNE 04:29:36 10° ESE
PAYLOAD A 4.4 04:22:01 10° NNE 04:26:47 60° ESE 04:31:25 10° S
Unknown 3.7 04:24:42 22° WSW 04:27:18 73° SSE 04:31:27 10° ENE
Meteor 1-10 Rocket 4.4 04:21:35 10° SSW 04:27:27 62° WNW 04:33:22 10° N
Unknown 3.3 04:25:18 22° W 04:27:37 81° N 04:31:23 10° E
Cosmos 1812 2.6 04:24:05 10° SSW 04:27:56 77° W 04:31:50 10° N
CZ-2D R/B 4.1 04:27:11 10° NNW 04:29:01 12° NW 04:30:52 10° WNW
Unknown 3.6 04:26:23 21° WSW 04:29:04 76° SSE 04:33:12 10° ENE
Meteor 1-11 Rocket 3.8 04:23:41 10° NNW 04:29:09 53° W 04:34:31 10° S
Unknown 3.7 04:27:18 21° WSW 04:30:01 75° SSE 04:34:11 10° ENE
Unknown 3.6 04:29:32 20° WSW 04:32:20 77° SSE 04:36:30 10° ENE
Cosmos 1315 Rocket 2.8 04:28:55 10° SSW 04:33:03 83° W 04:37:14 10° NNE
Unknown 3.6 04:31:05 19° WSW 04:33:57 77° SSE 04:38:06 10° ENE
Unknown 3.6 04:31:38 19° WSW 04:34:32 77° SSE 04:38:41 10° ENE
Cosmos 1943 Rocket 3.0 04:31:08 17° WSW 04:34:49 35° NW 04:39:56 10° NNE
Unknown 3.6 04:34:12 18° WSW 04:37:11 78° SSE 04:41:21 10° ENE
BREEZE-M DEB (TANK) 3.7 04:29:35 15° WSW 04:37:18 47° S 04:40:43 10° ESE
Cosmos 1782 Rocket 3.7 04:33:31 10° N 04:37:55 81° E 04:42:19 10° SSE
Cosmos 1782 4.4 04:36:59 16° W 04:38:13 18° WNW 04:41:01 10° NNW
USA 215 4.4 04:33:54 10° ENE 04:40:00 40° SE 04:46:05 10° SSW
Unknown 3.6 04:37:28 17° WSW 04:40:35 81° SSE 04:44:44 10° ENE
Cosmos 2266 Rocket 4.4 04:34:59 10° S 04:40:59 64° E 04:46:58 10° NNE
Unknown 3.6 04:39:02 17° WSW 04:42:13 81° SSE 04:46:22 10° ENE
Unknown 3.6 04:40:38 16° WSW 04:43:53 82° SSE 04:48:04 10° ENE
Unknown 3.6 04:42:16 16° WSW 04:45:34 83° SSE 04:49:44 10° ENE
Unknown 2.9 04:44:43 16° W 04:46:43 48° SSW 04:49:30 10° SE
ATLAS 5 CENTAUR R/B 3.8 04:43:30 10° NW 04:47:39 25° N 04:52:18 10° ENE
Unknown 3.6 04:45:28 15° WSW 04:48:54 85° SSE 04:53:04 10° ENE
Unknown 3.2 04:46:53 13° W 04:50:03 82° N 04:53:37 10° E
Cosmos 1400 Rocket 3.9 04:47:35 14° WSW 04:50:10 25° WNW 04:53:26 10° N
Unknown 3.6 04:47:06 14° WSW 04:50:37 86° SSE 04:54:45 10° ENE
Unknown 3.6 04:48:38 14° WSW 04:52:12 86° SSE 04:56:22 10° ENE
Cosmos 1666 2.6 04:49:45 10° NNW 04:53:29 61° W 04:57:12 10° S
Unknown 3.6 04:50:11 13° WSW 04:53:50 87° SSE 04:58:00 10° ENE
Sich 1 Rocket 3.6 04:49:31 10° NNW 04:53:59 87° W 04:58:29 10° S
Cosmos 1703 Rocket 3.5 04:50:20 10° SSW 04:54:46 84° WNW 04:59:13 10° N
Unknown 3.6 04:51:21 13° W 04:54:57 87° N 04:59:01 10° E
Aureole 2 Rocket 1.9 04:52:24 10° SW 04:54:59 52° WNW 04:57:37 10° NNE
Meteor 1-31 Rocket 2.9 04:51:38 10° NNE 04:55:35 80° ESE 04:59:29 10° SSW
Unknown 3.6 04:52:05 13° WSW 04:55:48 88° SSE 04:59:58 10° ENE
Unknown 3.6 04:53:17 12° WSW 04:57:03 87° SSE 05:01:12 10° ENE
Cosmos 1340 3.5 04:54:10 10° NNW 04:57:29 29° W 05:00:47 10° SSW
NOSS 3-2 (A) 4.4 04:51:51 10° W 04:57:37 40° NNW 05:04:19 10° NE
BREEZE-M DEB (TANK) 3.0 04:55:03 10° WSW 04:58:59 42° S 05:01:16 10° E
H-2A R/B 2.7 04:55:54 10° N 04:59:34 43° WNW 05:03:12 10° SW
ATLAS 3B R/B 3.0 04:53:56 11° WSW 05:00:11 52° NNW 05:06:40 10° NE
Unknown 3.6 04:56:27 12° WSW 05:00:21 88° S 05:04:31 10° ENE
IDEFIX/ARIANE 42P 3.0 04:55:35 10° N 05:00:36 45° WNW 05:05:37 10° SW
Cosmos 1553 Rocket 4.4 04:54:49 10° NNW 05:00:39 42° W 05:06:23 10° SSW
NOSS 3-2 (C) 4.2 04:55:34 11° W 05:01:23 46° NNW 05:08:12 10° NE
Unknown 3.6 04:58:04 11° WSW 05:02:02 89° SSE 05:06:12 10° ENE
Okean 1 4.2 04:58:52 10° S 05:02:43 54° E 05:06:38 10° NNE
Cosmos 2242 Rocket 4.0 04:58:52 10° SW 05:03:11 42° WNW 05:07:29 10° N
Cosmos 1975 3.5 04:59:41 10° N 05:03:44 63° ENE 05:07:46 10° SSE
Unknown 3.6 04:59:50 11° WSW 05:03:53 88° N 05:08:03 10° E
OPS 6432 4.2 05:01:16 10° SW 05:04:44 88° SE 05:07:43 10° NE
Unknown 3.6 05:00:55 10° W 05:04:57 87° N 05:09:05 10° E
Cosmos 773 Rocket 4.1 04:59:55 10° SW 05:05:01 59° WNW 05:10:08 10° NNE
Unknown 3.6 05:01:15 10° WSW 05:05:21 90° NW 05:09:32 10° E
Unknown 3.6 05:02:50 10° WSW 05:07:00 89° N 05:11:10 10° E
Unknown 3.1 05:03:40 10° WNW 05:07:08 87° SSW 05:10:37 10° ESE
FALCON 9 DEB 3.2 05:05:30 10° WNW 05:09:03 89° SSW 05:12:35 10° ESE
Cosmos 2315 Rocket 4.0 05:03:03 10° N 05:09:18 86° W 05:15:31 10° S
Cosmos 2082 4.3 05:04:21 10° NNW 05:10:03 63° NE 05:15:39 10° SE
Unknown 3.7 05:06:10 10° W 05:10:20 88° N 05:14:31 10° E
Cosmos 1536 3.9 05:07:41 10° NW 05:10:56 24° W 05:14:11 10° SW
Cosmos 1346 Rocket 4.0 05:08:13 10° NW 05:11:27 23° W 05:14:40 10° SW
Unknown 3.7 05:07:50 10° W 05:12:00 87° N 05:16:10 10° E
Cosmos 2344 4.3 05:04:42 10° W 05:12:09 49° NNW 05:21:14 10° NE
Unknown 3.7 05:09:31 10° W 05:13:40 87° N 05:17:50 10° E
ADEOS II 4.0 05:12:03 10° NNW 05:14:22 13° NW 05:16:42 10° WNW
Unknown 3.7 05:11:10 10° W 05:15:20 86° N 05:19:31 10° E
USA 267 3.3 05:10:39 10° SE 05:17:12 75° SSW 05:23:47 10° WNW
BREEZE-M DEB (TANK) 4.2 05:13:09 10° WNW 05:19:32 29° SW 05:22:23 10° SSE
